Terminal Aerodrome Forecast
Issued by NWS Boise, ID

Home | Current Version | Previous Version | Text Only | Print | Product List | Glossary On
Versions: 1 2 3 4 5 6 7 8 9 10 11 12 13
000
FTUS45 KBOI 292330
TAFBOI
TAF
KBOI 292330Z 3000/3024 30008KT P6SM SKC
     FM300300 14008KT P6SM BKN120
     FM301500 31009KT P6SM BKN100=

USA.gov is the U.S. government's official web portal to all federal, state and local government web resources and services.